{"data":{"norad_id":53930,"intl_designator":"2022-119AW","name":"STARLINK-5010","alt_names":[],"object_type":"PAYLOAD","status":"ACTIVE","operator":null,"country":"US","launch_date":"2022-09-24","launch_site_code":"AFETR","launch_vehicle":null,"mission":null,"orbit_class":"UNKNOWN","rcs_meters":null,"size_class":null,"mass_kg":null,"dimensions":null,"purposes":["comms"],"wikipedia_slug":null,"has_3d_model":false,"image_url":null,"decayed_at":null,"tle_current":{"epoch":"2026-09-20T22:47:32.558496Z","epoch_age_seconds":47851,"freshness":"FRESH","line1":"1 53930U 22119AW  26263.94968239 -.00000496  00000+0 -56965-5 0  9990","line2":"2 53930  53.1760  92.1696 0001437 103.8688 256.2471 15.26517321222226","mean_motion":15.26517321,"eccentricity":0.0001437,"inclination_deg":53.176,"raan_deg":92.1696,"arg_perigee_deg":103.8688,"mean_anomaly_deg":256.2471,"bstar":-5.6965e-6,"rev_number":22222,"period_min":94.332372138213,"perigee_km":485.24657512516,"apogee_km":487.21939505887,"semimajor_km":6864.369985092,"source":"CELESTRAK","updated_at":"2026-09-21T09:00:33.037350Z"}}}